SDM5220 UHMM-UNNT

Flight info

Callsign SDM5220
Flight time N/A
Altitude 34000
Route KUKIR5D KUKIR A949 INLIR G370 KUNIK/K0907F360 G370 ABGUR W289 GISUN W39 ERBOG W105 ENS B911 TOKMO A300 NN G829 REGMI REGMI1M
Aircraft B748/H-SDFGHIMRWXY/S

Departure

Time N/A
Airport Sokol Airport (UHMM)

Arrival

Time 2026-04-27 21:55
Airport Novosibirsk Tolmachevo Airport (UNNT)
Time Latitude Longitude Altitude Speed Heading
2026-04-27 19:44 61.63387 111.09961 39854 ft 475 kts 260°
2026-04-27 19:44 61.62666 111.03255 39864 ft 472 kts 259°
2026-04-27 19:45 61.61210 110.89797 39857 ft 472 kts 259°
2026-04-27 19:45 61.59742 110.76344 39851 ft 472 kts 259°
2026-04-27 19:46 61.58267 110.62968 39853 ft 473 kts 259°
2026-04-27 19:46 61.56775 110.49587 39855 ft 474 kts 259°
2026-04-27 19:47 61.55271 110.36221 39865 ft 474 kts 259°
2026-04-27 19:47 61.53751 110.22832 39869 ft 472 kts 258°
2026-04-27 19:48 61.52217 110.09463 39868 ft 471 kts 258°
2026-04-27 19:48 61.50678 109.96155 39880 ft 471 kts 258°
2026-04-27 19:49 61.49122 109.82832 39860 ft 473 kts 258°
2026-04-27 19:49 61.47557 109.69582 39863 ft 473 kts 258°
2026-04-27 19:50 61.45969 109.56233 39862 ft 472 kts 258°
2026-04-27 19:50 61.44381 109.43007 39871 ft 472 kts 258°
2026-04-27 19:51 61.42791 109.29892 39869 ft 470 kts 257°
2026-04-27 19:51 61.41174 109.16670 39867 ft 471 kts 257°
2026-04-27 19:52 61.39546 109.03492 39863 ft 471 kts 256°
2026-04-27 19:52 61.37906 108.90318 39861 ft 470 kts 256°
2026-04-27 19:53 61.35433 108.70647 39871 ft 470 kts 256°
2026-04-27 19:53 61.33765 108.57554 39867 ft 469 kts 256°
2026-04-27 19:54 61.32077 108.44410 39856 ft 468 kts 256°
2026-04-27 19:54 61.30400 108.31436 39867 ft 470 kts 255°
2026-04-27 19:55 61.28693 108.18343 39855 ft 471 kts 255°
2026-04-27 19:55 61.26971 108.05258 39854 ft 471 kts 255°
2026-04-27 19:56 61.25246 107.92230 39828 ft 470 kts 255°
2026-04-27 19:56 61.23508 107.79185 39840 ft 469 kts 255°
2026-04-27 19:57 61.21767 107.66225 39815 ft 469 kts 255°
2026-04-27 19:57 61.20004 107.53201 39838 ft 472 kts 255°
2026-04-27 19:58 61.18219 107.40115 39843 ft 473 kts 255°
2026-04-27 19:58 61.16435 107.27152 39875 ft 470 kts 254°
2026-04-27 19:59 61.14625 107.14110 39867 ft 472 kts 254°
2026-04-27 19:59 61.12810 107.01138 39853 ft 470 kts 253°
2026-04-27 20:00 61.10974 106.88119 39874 ft 473 kts 254°
2026-04-27 20:00 61.09137 106.75188 39851 ft 471 kts 253°
2026-04-27 20:01 61.07284 106.62244 39830 ft 471 kts 254°
2026-04-27 20:01 61.05412 106.49271 39835 ft 470 kts 254°
2026-04-27 20:02 61.03532 106.36336 39859 ft 474 kts 254°
2026-04-27 20:02 61.01634 106.23378 39851 ft 474 kts 253°
2026-04-27 20:03 60.99728 106.10481 39869 ft 472 kts 253°
2026-04-27 20:03 60.97807 105.97566 39874 ft 474 kts 253°
2026-04-27 20:04 60.95884 105.84744 39860 ft 474 kts 253°
2026-04-27 20:04 60.94255 105.73965 39883 ft 474 kts 253°
2026-04-27 20:05 60.91980 105.59009 39870 ft 473 kts 253°
2026-04-27 20:05 60.90014 105.46178 39860 ft 472 kts 253°
2026-04-27 20:06 60.88037 105.33378 39874 ft 471 kts 252°
2026-04-27 20:06 60.86048 105.20613 39832 ft 470 kts 252°
2026-04-27 20:07 60.84055 105.07893 39882 ft 473 kts 252°
2026-04-27 20:07 60.82050 104.95190 39891 ft 472 kts 252°
2026-04-27 20:08 60.80027 104.82467 39878 ft 470 kts 252°
2026-04-27 20:08 60.77986 104.69720 39870 ft 470 kts 252°
2026-04-27 20:09 60.75943 104.57054 39900 ft 472 kts 252°
2026-04-27 20:09 60.73896 104.44422 39878 ft 471 kts 252°
2026-04-27 20:10 60.71830 104.31789 39879 ft 468 kts 251°
2026-04-27 20:10 60.69745 104.19184 39879 ft 470 kts 251°
2026-04-27 20:11 60.67636 104.06532 39880 ft 468 kts 251°
2026-04-27 20:11 60.65525 103.93971 39899 ft 468 kts 251°
2026-04-27 20:12 60.63764 103.83534 39881 ft 469 kts 251°
2026-04-27 20:12 60.61275 103.68884 39912 ft 470 kts 251°
2026-04-27 20:13 60.59124 103.56330 39913 ft 472 kts 251°
2026-04-27 20:13 60.56966 103.43812 39901 ft 471 kts 251°
2026-04-27 20:14 60.54802 103.31326 39898 ft 470 kts 250°
2026-04-27 20:14 60.52597 103.18687 39945 ft 472 kts 250°
2026-04-27 20:15 60.50406 103.06214 39913 ft 472 kts 250°
2026-04-27 20:15 60.48198 102.93708 39945 ft 473 kts 250°
2026-04-27 20:16 60.45972 102.81191 39952 ft 471 kts 250°
2026-04-27 20:16 60.43743 102.68746 39944 ft 472 kts 250°
2026-04-27 20:17 60.41488 102.56233 39940 ft 471 kts 250°
2026-04-27 20:17 60.39625 102.45946 39949 ft 471 kts 250°
2026-04-27 20:18 60.36973 102.31386 39960 ft 470 kts 249°
2026-04-27 20:18 60.34989 102.18849 39966 ft 471 kts 253°
2026-04-27 20:19 60.33248 102.06113 39967 ft 471 kts 255°
2026-04-27 20:19 60.31523 101.93386 39968 ft 468 kts 253°
2026-04-27 20:20 60.29693 101.80728 39957 ft 471 kts 253°
2026-04-27 20:20 60.27848 101.68052 39958 ft 471 kts 253°
2026-04-27 20:21 60.26008 101.55418 39958 ft 472 kts 254°
2026-04-27 20:21 60.24152 101.42715 39951 ft 469 kts 253°
2026-04-27 20:22 60.22304 101.30151 39966 ft 469 kts 253°
2026-04-27 20:22 60.20435 101.17540 39973 ft 470 kts 253°
2026-04-27 20:23 60.18560 101.04988 39979 ft 469 kts 253°
2026-04-27 20:23 60.16668 100.92406 39981 ft 469 kts 253°
2026-04-27 20:24 60.14780 100.79950 39993 ft 471 kts 253°
2026-04-27 20:24 60.12860 100.67368 39984 ft 469 kts 253°
2026-04-27 20:25 60.10939 100.54871 39988 ft 470 kts 253°
2026-04-27 20:25 60.09003 100.42364 39989 ft 469 kts 253°
2026-04-27 20:26 60.07064 100.29942 39981 ft 469 kts 252°
2026-04-27 20:26 60.05100 100.17443 39987 ft 471 kts 252°
2026-04-27 20:27 60.03141 100.05057 40004 ft 470 kts 252°
2026-04-27 20:27 60.01151 99.92563 39990 ft 470 kts 252°
2026-04-27 20:28 59.99154 99.80116 39990 ft 467 kts 252°
2026-04-27 20:28 59.97487 99.69795 39980 ft 468 kts 252°
2026-04-27 20:29 59.95149 99.55426 39989 ft 469 kts 252°
2026-04-27 20:29 59.93110 99.42982 39984 ft 467 kts 252°
2026-04-27 20:30 59.91085 99.30708 39987 ft 468 kts 251°
2026-04-27 20:30 59.89044 99.18422 39991 ft 468 kts 251°
2026-04-27 20:31 59.86975 99.06055 39998 ft 469 kts 251°
2026-04-27 20:31 59.84912 98.93800 39986 ft 467 kts 251°
2026-04-27 20:32 59.82827 98.81503 39997 ft 470 kts 251°
2026-04-27 20:32 59.80742 98.69282 39998 ft 468 kts 251°
2026-04-27 20:33 59.78628 98.56982 40004 ft 468 kts 251°
2026-04-27 20:33 59.76523 98.44809 39992 ft 468 kts 251°
2026-04-27 20:34 59.74388 98.32552 40012 ft 469 kts 250°
2026-04-27 20:34 59.72253 98.20368 40013 ft 469 kts 250°
2026-04-27 20:35 59.70105 98.08194 40017 ft 469 kts 250°
2026-04-27 20:35 59.67947 97.96043 40015 ft 470 kts 250°
2026-04-27 20:36 59.65785 97.83943 40018 ft 469 kts 250°
2026-04-27 20:36 59.63596 97.71774 40021 ft 470 kts 250°
2026-04-27 20:37 59.61389 97.59570 40017 ft 469 kts 250°
2026-04-27 20:37 59.59186 97.47482 40021 ft 470 kts 250°
2026-04-27 20:38 59.56956 97.35319 40026 ft 470 kts 250°
2026-04-27 20:38 59.54715 97.23166 40018 ft 473 kts 249°
2026-04-27 20:39 59.52454 97.10991 40020 ft 472 kts 249°
2026-04-27 20:39 59.50200 96.98919 40026 ft 470 kts 249°
2026-04-27 20:40 59.47919 96.86779 40031 ft 473 kts 249°
2026-04-27 20:40 59.45610 96.74564 40035 ft 471 kts 249°
2026-04-27 20:41 59.43309 96.62450 40029 ft 472 kts 249°
2026-04-27 20:41 59.40995 96.50388 40027 ft 474 kts 249°
2026-04-27 20:42 59.38661 96.38300 40036 ft 474 kts 249°
2026-04-27 20:42 59.36320 96.26242 40052 ft 473 kts 249°
2026-04-27 20:43 59.33964 96.14175 40053 ft 474 kts 249°
2026-04-27 20:43 59.31596 96.02123 40069 ft 477 kts 249°
2026-04-27 20:44 59.29220 95.90088 40072 ft 476 kts 249°
2026-04-27 20:44 59.26816 95.77976 40071 ft 476 kts 249°
2026-04-27 20:45 59.24414 95.65945 40066 ft 476 kts 249°
2026-04-27 20:45 59.21987 95.53910 40069 ft 476 kts 249°
2026-04-27 20:46 59.19546 95.41910 40063 ft 476 kts 249°
2026-04-27 20:46 59.17096 95.29926 40067 ft 476 kts 248°
2026-04-27 20:47 59.14641 95.17986 40064 ft 476 kts 248°
2026-04-27 20:47 59.12181 95.06083 40063 ft 476 kts 248°
2026-04-27 20:48 59.10112 94.96132 40062 ft 478 kts 248°
2026-04-27 20:48 59.07208 94.82234 40062 ft 475 kts 248°
2026-04-27 20:49 59.04713 94.70370 40062 ft 476 kts 248°
2026-04-27 20:49 59.02206 94.58518 40056 ft 477 kts 248°
2026-04-27 20:50 58.99683 94.46650 40042 ft 475 kts 248°
2026-04-27 20:50 58.97147 94.34794 40060 ft 476 kts 247°
2026-04-27 20:51 58.94617 94.23026 40071 ft 477 kts 247°
2026-04-27 20:51 58.92059 94.11188 40072 ft 476 kts 247°
2026-04-27 20:52 58.89511 93.99444 40076 ft 477 kts 247°
2026-04-27 20:52 58.86935 93.87688 40074 ft 474 kts 248°
2026-04-27 20:53 58.84353 93.75971 40079 ft 474 kts 247°
2026-04-27 20:53 58.81770 93.64311 40091 ft 475 kts 247°
2026-04-27 20:54 58.77864 93.46796 40100 ft 478 kts 247°
2026-04-27 20:55 58.75221 93.35007 40093 ft 478 kts 247°
2026-04-27 20:55 58.72592 93.23357 40111 ft 478 kts 246°
2026-04-27 20:56 58.69931 93.11626 40102 ft 478 kts 246°
2026-04-27 20:56 58.67281 93.00002 40108 ft 477 kts 247°
2026-04-27 20:57 58.64615 92.88336 40103 ft 477 kts 246°
2026-04-27 20:57 58.61927 92.76688 40117 ft 478 kts 246°
2026-04-27 20:58 58.59267 92.65238 40143 ft 479 kts 246°
2026-04-27 20:58 58.56530 92.53510 40147 ft 478 kts 246°
2026-04-27 20:59 58.53799 92.41853 40154 ft 479 kts 246°
2026-04-27 20:59 58.51067 92.30267 40171 ft 480 kts 246°
2026-04-27 21:00 58.48329 92.18687 40164 ft 479 kts 246°
2026-04-27 21:00 58.45610 92.07166 40165 ft 479 kts 246°
2026-04-27 21:01 58.42948 91.95531 40171 ft 479 kts 247°
2026-04-27 21:01 58.40296 91.83959 40164 ft 477 kts 247°
2026-04-27 21:02 58.37623 91.72382 40161 ft 480 kts 247°
2026-04-27 21:02 58.34940 91.60823 40156 ft 481 kts 247°
2026-04-27 21:03 58.32227 91.49200 40168 ft 481 kts 247°
2026-04-27 21:03 58.29506 91.37608 40173 ft 481 kts 247°
2026-04-27 21:04 58.26788 91.26093 40196 ft 481 kts 246°
2026-04-27 21:04 58.24050 91.14555 40196 ft 481 kts 246°
2026-04-27 21:05 58.21298 91.03017 40185 ft 480 kts 246°
2026-04-27 21:05 58.18557 90.91580 40189 ft 479 kts 246°
2026-04-27 21:06 58.15783 90.80070 40174 ft 481 kts 246°
2026-04-27 21:06 58.13010 90.68632 40175 ft 480 kts 246°
2026-04-27 21:07 58.10223 90.57188 40188 ft 481 kts 246°
2026-04-27 21:07 58.07416 90.45719 40175 ft 482 kts 246°
2026-04-27 21:08 58.04606 90.34302 40162 ft 482 kts 246°
2026-04-27 21:08 58.01797 90.22953 40171 ft 482 kts 245°
2026-04-27 21:09 57.98947 90.11497 40173 ft 484 kts 246°
2026-04-27 21:09 57.96101 90.00113 40163 ft 483 kts 246°
2026-04-27 21:10 57.93234 89.88706 40176 ft 485 kts 246°
2026-04-27 21:10 57.90350 89.77283 40183 ft 485 kts 245°
2026-04-27 21:11 57.87462 89.65910 40192 ft 484 kts 246°
2026-04-27 21:11 57.84573 89.54588 40190 ft 484 kts 245°
2026-04-27 21:12 57.81668 89.43276 40188 ft 483 kts 246°
2026-04-27 21:12 57.78749 89.31950 40199 ft 483 kts 245°
2026-04-27 21:13 57.75845 89.20742 40196 ft 482 kts 245°
2026-04-27 21:13 57.72918 89.09501 40194 ft 482 kts 245°
2026-04-27 21:14 57.69976 88.98264 40200 ft 482 kts 245°
2026-04-27 21:14 57.67019 88.87023 40200 ft 484 kts 245°
2026-04-27 21:15 57.64062 88.75826 40194 ft 485 kts 245°
2026-04-27 21:15 57.61086 88.64625 40202 ft 483 kts 245°
2026-04-27 21:16 57.58103 88.53463 40202 ft 483 kts 245°
2026-04-27 21:16 57.55113 88.42315 40204 ft 484 kts 245°
2026-04-27 21:17 57.52106 88.31159 40203 ft 485 kts 244°
2026-04-27 21:17 57.49100 88.20072 40202 ft 485 kts 244°
2026-04-27 21:18 57.46057 88.08892 40198 ft 487 kts 244°
2026-04-27 21:18 57.43008 87.97745 40200 ft 485 kts 244°
2026-04-27 21:19 57.39958 87.86655 40202 ft 487 kts 244°
2026-04-27 21:19 57.36931 87.75700 40205 ft 484 kts 244°
2026-04-27 21:20 57.32337 87.59175 40212 ft 485 kts 244°
2026-04-27 21:20 57.29304 87.48334 40207 ft 484 kts 244°
2026-04-27 21:21 57.26279 87.37567 40208 ft 484 kts 244°
2026-04-27 21:21 57.23185 87.26607 40206 ft 486 kts 243°
2026-04-27 21:22 57.20134 87.15852 40209 ft 485 kts 243°
2026-04-27 21:22 57.17005 87.05074 40211 ft 487 kts 240°
2026-04-27 21:23 57.13492 86.94408 40211 ft 486 kts 243°
2026-04-27 21:23 57.10444 86.83419 40216 ft 485 kts 245°
2026-04-27 21:24 57.07475 86.72318 40219 ft 485 kts 246°
2026-04-27 21:24 57.04552 86.61203 40218 ft 486 kts 244°
2026-04-27 21:25 57.01357 86.50318 40222 ft 487 kts 243°
2026-04-27 21:25 56.98136 86.39526 40219 ft 488 kts 243°
2026-04-27 21:26 56.94912 86.28630 40228 ft 488 kts 242°
2026-04-27 21:26 56.91689 86.17765 40224 ft 489 kts 242°
2026-04-27 21:27 56.88448 86.06880 40236 ft 487 kts 243°
2026-04-27 21:27 56.85232 85.96125 40242 ft 485 kts 242°
2026-04-27 21:28 56.83641 85.90823 40221 ft 469 kts 243°
2026-04-27 21:28 56.82106 85.85717 40224 ft 459 kts 242°
2026-04-27 21:28 56.78991 85.75380 39586 ft 480 kts 242°
2026-04-27 21:29 56.77363 85.69994 39093 ft 490 kts 242°
2026-04-27 21:29 56.75724 85.64587 38565 ft 492 kts 242°
2026-04-27 21:29 56.74088 85.59207 38037 ft 488 kts 242°
2026-04-27 21:29 56.72444 85.53816 37512 ft 482 kts 242°
2026-04-27 21:30 56.70844 85.48580 37086 ft 476 kts 242°
2026-04-27 21:30 56.69250 85.43372 36653 ft 469 kts 242°
2026-04-27 21:30 56.67688 85.38274 36230 ft 462 kts 242°
2026-04-27 21:30 56.66124 85.33188 35804 ft 455 kts 242°
2026-04-27 21:31 56.64595 85.28226 35381 ft 449 kts 242°
2026-04-27 21:31 56.63089 85.23340 34986 ft 458 kts 242°
2026-04-27 21:31 56.61517 85.18246 34597 ft 474 kts 242°
2026-04-27 21:31 56.59882 85.12959 34169 ft 481 kts 242°
2026-04-27 21:32 56.58257 85.07722 33731 ft 481 kts 242°
2026-04-27 21:32 56.56614 85.02443 33276 ft 477 kts 242°
2026-04-27 21:32 56.55009 84.97304 32876 ft 470 kts 242°
2026-04-27 21:32 56.53407 84.92183 32466 ft 464 kts 242°
2026-04-27 21:33 56.51839 84.87174 32079 ft 470 kts 242°
2026-04-27 21:33 56.50204 84.81956 31685 ft 477 kts 242°
2026-04-27 21:33 56.48585 84.76804 31278 ft 478 kts 242°
2026-04-27 21:33 56.46955 84.71629 30853 ft 476 kts 242°
2026-04-27 21:34 56.45322 84.66463 30430 ft 470 kts 241°
2026-04-27 21:34 56.43721 84.61407 30030 ft 464 kts 241°
2026-04-27 21:34 56.42127 84.56383 29613 ft 459 kts 242°
2026-04-27 21:34 56.40557 84.51439 29195 ft 456 kts 242°
2026-04-27 21:35 56.38991 84.46522 28777 ft 454 kts 242°
2026-04-27 21:35 56.37333 84.41689 28324 ft 451 kts 236°
2026-04-27 21:35 56.35315 84.37399 27891 ft 450 kts 229°
2026-04-27 21:35 56.33126 84.33489 27454 ft 447 kts 227°
2026-04-27 21:36 56.30970 84.29472 27006 ft 442 kts 230°
2026-04-27 21:36 56.28981 84.25350 26532 ft 437 kts 233°
2026-04-27 21:36 56.27154 84.21060 26029 ft 431 kts 236°
2026-04-27 21:36 56.25535 84.16653 25532 ft 428 kts 240°
2026-04-27 21:37 56.24082 84.11844 25051 ft 445 kts 245°
2026-04-27 21:37 56.22918 84.06643 24516 ft 450 kts 251°
2026-04-27 21:37 56.21613 84.01566 24042 ft 452 kts 240°
2026-04-27 21:37 56.19865 83.96922 23594 ft 451 kts 237°
2026-04-27 21:38 56.18035 83.92436 23119 ft 441 kts 236°
2026-04-27 21:38 56.16294 83.88067 22657 ft 429 kts 238°
2026-04-27 21:38 56.14639 83.83678 22190 ft 420 kts 239°
2026-04-27 21:38 56.13044 83.79390 21748 ft 416 kts 239°
2026-04-27 21:39 56.11426 83.75035 21326 ft 424 kts 239°
2026-04-27 21:39 56.09802 83.70699 20892 ft 424 kts 238°
2026-04-27 21:39 56.08160 83.66354 20452 ft 424 kts 237°
2026-04-27 21:39 56.06277 83.62299 20007 ft 425 kts 231°
2026-04-27 21:40 56.04293 83.58347 19567 ft 424 kts 231°
2026-04-27 21:40 56.02354 83.54460 19134 ft 421 kts 232°
2026-04-27 21:40 56.00431 83.50575 18676 ft 418 kts 232°
2026-04-27 21:40 55.98513 83.46691 18238 ft 416 kts 232°
2026-04-27 21:41 55.96624 83.42862 17805 ft 415 kts 232°
2026-04-27 21:41 55.94715 83.39005 17366 ft 413 kts 232°
2026-04-27 21:41 55.92844 83.35229 16941 ft 411 kts 232°
2026-04-27 21:41 55.90947 83.31401 16510 ft 410 kts 231°
2026-04-27 21:42 55.89079 83.27645 16094 ft 409 kts 231°
2026-04-27 21:42 55.87189 83.23846 15680 ft 408 kts 231°
2026-04-27 21:42 55.85314 83.20080 15267 ft 406 kts 231°
2026-04-27 21:42 55.83464 83.16374 14858 ft 405 kts 231°
2026-04-27 21:43 55.81627 83.12699 14449 ft 404 kts 231°
2026-04-27 21:43 55.79815 83.09110 14042 ft 403 kts 229°
2026-04-27 21:43 55.77610 83.06015 13639 ft 408 kts 213°
2026-04-27 21:43 55.74988 83.04140 13226 ft 409 kts 198°
2026-04-27 21:44 55.72293 83.03000 12847 ft 399 kts 195°
2026-04-27 21:44 55.69607 83.01997 12431 ft 389 kts 197°
2026-04-27 21:44 55.67031 83.00725 12048 ft 379 kts 200°
2026-04-27 21:44 55.64567 82.99376 11676 ft 371 kts 200°
2026-04-27 21:45 55.62114 82.98016 11299 ft 364 kts 200°
2026-04-27 21:45 55.59724 82.96708 10938 ft 356 kts 200°
2026-04-27 21:45 55.57386 82.95441 10574 ft 350 kts 200°
2026-04-27 21:45 55.55093 82.94201 10223 ft 344 kts 200°
2026-04-27 21:46 55.52826 82.92982 9879 ft 338 kts 200°
2026-04-27 21:46 55.50626 82.91801 9564 ft 332 kts 200°
2026-04-27 21:46 55.48431 82.90622 9240 ft 326 kts 200°
2026-04-27 21:46 55.46296 82.89476 8927 ft 320 kts 200°
2026-04-27 21:47 55.44187 82.88342 8620 ft 314 kts 200°
2026-04-27 21:47 55.42110 82.87246 8328 ft 309 kts 200°
2026-04-27 21:47 55.40093 82.86176 8038 ft 304 kts 200°
2026-04-27 21:47 55.38097 82.85120 7752 ft 298 kts 200°
2026-04-27 21:48 55.36107 82.84063 7473 ft 293 kts 200°
2026-04-27 21:48 55.34173 82.83041 7207 ft 288 kts 200°
2026-04-27 21:48 55.32261 82.82156 6920 ft 285 kts 187°
2026-04-27 21:48 55.30325 82.82387 6688 ft 282 kts 170°
2026-04-27 21:49 55.28413 82.82998 6391 ft 282 kts 171°
2026-04-27 21:49 55.26491 82.83597 6068 ft 278 kts 172°
2026-04-27 21:49 55.24659 82.84079 5779 ft 272 kts 175°
2026-04-27 21:49 55.22823 82.84364 5549 ft 263 kts 178°
2026-04-27 21:50 55.21006 82.84508 5234 ft 259 kts 181°
2026-04-27 21:50 55.19235 82.84735 4952 ft 254 kts 176°
2026-04-27 21:50 55.17514 82.85089 4731 ft 246 kts 175°
2026-04-27 21:50 55.15830 82.85426 4430 ft 242 kts 176°
2026-04-27 21:51 55.14180 82.85741 4148 ft 238 kts 176°
2026-04-27 21:51 55.12543 82.86050 3873 ft 233 kts 176°
2026-04-27 21:51 55.10949 82.86350 3602 ft 229 kts 176°
2026-04-27 21:51 55.09382 82.86643 3340 ft 225 kts 175°
2026-04-27 21:52 55.07859 82.86928 3083 ft 221 kts 176°
2026-04-27 21:52 55.06355 82.87208 2841 ft 217 kts 176°
2026-04-27 21:52 55.04912 82.87292 2670 ft 205 kts 191°
2026-04-27 21:52 55.03645 82.86329 2341 ft 195 kts 224°
2026-04-27 21:53 55.03012 82.84465 2056 ft 173 kts 263°
2026-04-27 21:53 55.02834 82.82497 1979 ft 156 kts 264°
2026-04-27 21:53 55.02650 82.80595 1885 ft 162 kts 264°
2026-04-27 21:53 55.02465 82.78693 1651 ft 159 kts 264°
2026-04-27 21:54 55.02299 82.76801 1424 ft 159 kts 264°
2026-04-27 21:54 55.02137 82.74902 1208 ft 159 kts 263°
2026-04-27 21:54 55.01961 82.73006 984 ft 158 kts 262°
2026-04-27 21:54 55.01780 82.71130 776 ft 158 kts 263°
2026-04-27 21:55 55.01618 82.69228 550 ft 158 kts 262°
2026-04-27 21:55 55.01450 82.67347 378 ft 158 kts 261°
2026-04-27 21:55 55.01292 82.65595 362 ft 109 kts 262°
2026-04-27 21:55 55.01230 82.64848 361 ft 43 kts 261°
2026-04-27 21:56 55.01181 82.64333 361 ft 42 kts 261°
2026-04-27 21:56 55.01131 82.64008 362 ft 6 kts 69°
2026-04-27 21:56 55.01161 82.64179 361 ft 30 kts 78°
2026-04-27 21:57 55.01198 82.64574 361 ft 33 kts 81°
2026-04-27 21:57 55.01232 82.64948 362 ft 22 kts 85°
2026-04-27 21:57 55.01146 82.65067 363 ft 18 kts 171°
2026-04-27 21:57 55.01023 82.65095 363 ft 18 kts 173°
2026-04-27 21:58 55.00978 82.65110 363 ft 0 kts 170°
2026-04-27 21:58 55.00959 82.65115 363 ft 6 kts 170°
2026-04-27 21:58 55.00893 82.65122 363 ft 6 kts 182°
2026-04-27 21:58 55.00834 82.65134 363 ft 9 kts 171°
2026-04-27 21:59 55.00816 82.65139 363 ft 0 kts 171°